Weather History for Ishigakijima, Japan

Change the Weather History Date:

Monday, November 12, 2012

  Actual Average Record
Temperature  
Mean Temperature 72 °F -  
Max Temperature 75 °F 74 °F 80 °F (1997)
Min Temperature 70 °F 67 °F 66 °F (2001)
Cooling Degree Days 8    
Growing Degree Days 22 (Base 50)    
Moisture  
Dew Point 62 °F    
Average Humidity 68    
Maximum Humidity 78    
Minimum Humidity 53    
Precipitation  
Precipitation 0.00 in - - ()
Sea Level Pressure  
Sea Level Pressure 30.07 in    
Wind  
Wind Speed 12 mph ()    
Max Wind Speed 18 mph    
Max Gust Speed -    
Visibility 7.2 miles    
Events      
Averages and records for this station are not official NWS values.
T = Trace of Precipitation, MM = Missing Value Source: Averaged Metar Reports

Daily Weather History Graph

Daily Weather History Graph

Search for Another Location

Airport:

Trip Planner

Search our weather history database for the weather conditions in past years. The results will help you decide how hot, cold, wet, or windy it might be!

Date:

Astronomy

Nov. 12, 2012 Rise Set
Actual Time 6:56 AM JST 5:57 PM JST
Civil Twilight 6:32 AM JST 6:21 PM JST
Nautical Twilight 6:05 AM JST 6:49 PM JST
Astronomical Twilight 5:38 AM JST 7:16 PM JST
Moon 4:49 AM JST (11/12) 4:30 PM JST (11/12)
Length of Visible Light 11h 48m
Length of Day
11h 01m
Waning Crescent, 5% of the Moon is Illuminated
Nov 12
Waning Crescent
Nov 14
New
Nov 20
First Quarter
Nov 28
Full
Dec 7
Last Quarter

Hourly Weather History & Observations

Time (JST) Temp. Dew Point Humidity Pressure Visibility Wind Dir Wind Speed Gust Speed Precip Events Conditions
12:00 AM 71 °F 64 °F 71% 30.10 in - NNE 13.8 mph - -  
3:00 AM 71 °F 63 °F 68% 30.07 in 6 mi NNE 11.5 mph - -   Partly Cloudy
6:00 AM 70 °F 62 °F 68% 30.07 in 6 mi NE 16.1 mph - -   Mostly Cloudy
6:00 AM 69.8 °F 62.6 °F 78% 30.04 in 6.2 mi NE 18.4 mph - N/A   Mostly Cloudy
7:00 AM 69.8 °F 62.6 °F 78% 30.06 in 6.2 mi NNE 17.3 mph - N/A   Mostly Cloudy
8:00 AM 69.8 °F 62.6 °F 78% 30.06 in 6.2 mi NE 15.0 mph - N/A   Mostly Cloudy
9:00 AM 72 °F 62 °F 62% 30.12 in 9 mi NE 16.1 mph - -   Scattered Clouds
9:00 AM 71.6 °F 60.8 °F 69% 30.09 in 6.2 mi NE 15.0 mph - N/A   Mostly Cloudy
10:00 AM 71.6 °F 62.6 °F 73% 30.12 in 6.2 mi NE 16.1 mph - N/A   Mostly Cloudy
11:00 AM 73.4 °F 62.6 °F 69% 30.09 in 6.2 mi ENE 15.0 mph - N/A   Mostly Cloudy
12:00 PM 75 °F 61 °F 53% 30.10 in 12 mi ENE 15.0 mph - -   Scattered Clouds
12:00 PM 73.4 °F 60.8 °F 65% 30.09 in 6.2 mi NE 16.1 mph - N/A   Mostly Cloudy
1:00 PM 73.4 °F 60.8 °F 65% 30.06 in 6.2 mi ENE 15.0 mph - N/A   Mostly Cloudy
2:00 PM 71.6 °F 60.8 °F 69% 30.04 in 6.2 mi ENE 12.7 mph - N/A   Mostly Cloudy
3:00 PM 74 °F 62 °F 57% 30.04 in 12 mi ENE 11.5 mph - -   Scattered Clouds
3:00 PM 73.4 °F 60.8 °F 65% 30.04 in 6.2 mi ENE 12.7 mph - N/A   Mostly Cloudy
4:00 PM 73.4 °F 60.8 °F 65% 30.04 in 6.2 mi NE 13.8 mph - N/A   Partly Cloudy
5:00 PM 71.6 °F 60.8 °F 69% 30.04 in 6.2 mi NE 10.4 mph - N/A   Mostly Cloudy
6:00 PM 73 °F 62 °F 59% 30.05 in 12 mi ENE 8.1 mph - -   Overcast
6:00 PM 71.6 °F 62.6 °F 73% 30.04 in 6.2 mi ENE 8.1 mph - N/A   Mostly Cloudy
7:00 PM 71.6 °F 62.6 °F 73% 30.04 in 6.2 mi NE 6.9 mph - N/A   Mostly Cloudy
8:00 PM 71.6 °F 62.6 °F 73% 30.06 in 6.2 mi ENE 6.9 mph - N/A   Mostly Cloudy
9:00 PM 73 °F 63 °F 64% 30.07 in 9 mi ENE 9.2 mph - -   Overcast